Starlink 34553

operational
NORAD ID: 64681 Int'l Des: 2025-139 Owner: SPXS Country: US Constellation: starlink
LEOCIRCULAR

About Starlink 34553

Description loading...

Live Position

Loading 3D Globe...

Upcoming Passes

Altitude History

Altitude vs Time

uPlot chart will show altitude changes over time

Two-Line Element Set

1 64681U 25139T 25346.92330693 .00047930 00000-0 16205-2 0 9999
2 64681 53.1589 169.7838 0001307 96.4471 263.6679 15.30189527 27001
Epoch: Dec 12, 2025 • Age: 16 hours

Current Status

Altitude 479.7 km
Velocity 7.63 km/s
Sub-Earth Point 48.47°N, 7.91°W
Launch Date Jun 28, 2025
Age 0.4 years
Type internet

Technical Details

Classification Payload
Mass 575.00 kg
Dry Mass 530.00 kg
Total Mass 575.00 kg
Length 0.30 m
Diameter 4.10 m
Span 29.00 m
Shape Box + pan
Manufacturer SPXS
Bus Type Starlink V2MO
Phase Status In Orbit
Owner/State SPXS/US

Large Constellations

Loading constellations...